Tracking 19484 objects as of 18-Jan-2019
HD Live streaming from Space Station
objects crossing your sky now

GLOBALSTAR M052

Track GLOBALSTAR M052 now!
10-day predictions
GLOBALSTAR M052 is classified as:


NORAD ID: 25773
Int'l Code: 1999-031D
Perigee: 2,091.3 km
Apogee: 2,093.5 km
Inclination: 52.0 °
Period: 129.1 minutes
Semi major axis: 8463 km
RCS: 2.3894 m2 (large)
Launch date: June 10, 1999
Source: Globalstar (GLOB)
Launch site: AIR FORCE EASTERN TEST RANGE (AFETR)
aabbcc
Your satellite tracking list
Your tracking list is empty




NASA's NSSDC Master Catalog

Two Line Element Set (TLE):
1 25773U 99031D   19017.97292144 -.00000026 +00000-0 +13493-2 0  9993
2 25773 051.9836 243.6707 0001312 241.6867 225.9514 11.15027772217234
Source of the keplerian elements: AFSPC